Location: Potawatomi Wildlife Park
(41.2308°N, 86.1050°W)
Time: 00:01:12
(UTC-05:00)

Daily predictions for brighter satellites

Satellite Brightness Start Highest point End
(mag) Time Altitude Azimuth Time Altitude Azimuth Time Altitude Azimuth
NOSS 3-1 (C) 4.0 04:56:06 77° NE 04:56:20 78° NE 05:04:42 10° SE
Cosmos 1603 4.4 05:05:03 50° E 05:05:03 50° E 05:09:51 10° SE
Feng Yun 1-1 Rocket 4.5 05:10:15 10° NNE 05:15:45 66° ESE 05:15:46 66° ESE
SeaSat 1 3.1 05:22:58 10° NNE 05:26:31 48° NNE 05:26:31 48° NNE
Cosmos 2227 4.2 05:38:18 64° NNW 05:38:18 64° NNW 05:43:13 10° NNE
Cosmos 2058 4.4 05:42:54 29° SSE 05:42:54 29° SSE 05:44:58 10° S
Cosmos 1626 3.9 05:40:45 24° NE 05:42:11 32° ENE 05:45:32 10° SE
Cosmos 923 Rocket 4.1 05:41:04 50° N 05:42:26 75° ENE 05:47:41 10° SSE
Cosmos 2297 Rocket 4.4 05:49:38 11° N 05:49:38 11° N 05:49:53 10° N
Cosmos 1680 Rocket 3.8 05:45:52 27° N 05:48:45 66° ENE 05:54:02 10° SSE
DELTA 2 R/B (1) 3.5 05:49:38 61° SW 05:50:27 72° S 05:56:00 10° E
COSMO-SKYMED 1 2.8 05:46:17 10° SSE 05:50:35 67° ENE 05:52:16 35° N
Cosmos 1805 Rocket 4.1 05:48:24 22° N 05:51:08 58° E 05:55:25 10° SSE
Cosmos 1072 Rocket 4.4 05:48:06 10° S 05:54:15 90° E 06:00:24 10° N
Meteor 1-28 Rocket 4.0 05:56:27 10° SSE 06:00:05 50° ENE 06:02:24 20° N
Cosmos 1356 Rocket 3.5 05:58:40 34° N 06:00:22 73° E 06:04:34 10° SSE
Sich 1 3.9 05:58:50 10° N 06:03:03 49° E 06:07:13 10° SSE
Cosmos 1184 Rocket 3.3 06:04:18 56° NE 06:04:36 59° E 06:07:52 10° SSE
Cosmos 773 Rocket 4.3 06:08:08 43° WSW 06:08:08 43° WSW 06:12:50 10° S
NOSS 3-1 (A) 4.2 06:05:56 32° WNW 06:09:33 55° WSW 06:17:40 10° SSE
Cosmos 1633 Rocket 3.6 06:09:47 10° N 06:14:05 58° E 06:18:21 10° SSE
ATLAS 2AS CENTAUR R/B 3.4 06:10:35 12° NNW 06:18:12 63° NE 06:25:41 10° SE
Cosmos 2228 Rocket 4.2 06:14:05 10° SSE 06:18:16 44° E 06:22:28 10° NNE
Cosmos 1703 3.2 06:17:37 46° NW 06:18:33 63° W 06:22:26 10° S
Cosmos 1943 3.1 06:16:44 18° NNW 06:21:04 78° WSW 06:26:43 10° SSE
Cosmos 2344 3.8 06:14:56 10° SSW 06:22:34 76° ESE 06:31:05 10° NE
CZ-2C R/B 4.2 06:19:01 10° NE 06:23:04 31° E 06:27:07 10° SSE
Cosmos 2112 Rocket 4.0 06:21:14 16° NNW 06:25:28 70° WSW 06:30:46 10° S
CZ-4 R/B 3.3 06:22:49 10° NNE 06:26:33 33° E 06:30:19 10° SSE
BREEZE-M DEB (TANK) 3.8 06:27:04 22° N 06:27:21 23° N 06:29:16 10° ENE
Cosmos 292 Rocket 4.1 06:28:36 31° WNW 06:30:07 41° WSW 06:34:37 10° S
Cosmos 2221 3.0 06:30:00 35° W 06:30:21 35° WNW 06:34:19 10° N
Cosmos 389 Rocket 2.4 06:27:09 10° S 06:30:50 85° WNW 06:34:31 10° N
CZ-3 Stage 3 3.8 06:28:09 14° SW 06:31:30 27° S 06:43:18 10° SE
Tiangong 2 1.0 06:31:20 57° WNW 06:31:49 73° N 06:34:58 10° ENE
CSL-04 Debris 4.5 06:27:18 10° NNE 06:32:46 70° ESE 06:38:11 10° S
USA 234 4.3 06:27:03 10° E 06:32:54 36° NNE 06:38:24 12° NW
Cosmos 2263 Rocket 2.1 06:31:27 10° SSW 06:37:07 76° WNW 06:42:51 10° NNE
Cosmos 2298 Rocket 4.3 06:32:14 10° S 06:37:29 72° ESE 06:42:47 10° NNE
ATLAS 3B CENTAUR R/B 4.4 06:32:29 10° SSW 06:37:50 30° SSE 06:49:51 10° E
SKYMED 2 4.1 06:34:46 10° SSW 06:38:44 35° W 06:40:54 22° NW
Cosmos 1726 4.2 06:36:29 10° SSE 06:39:44 30° E 06:43:01 10° NNE
MINOTAUR IV R/B 4.5 06:36:39 10° SSW 06:41:08 82° WNW 06:45:37 10° NNE
YAOGAN 1 4.4 06:37:27 10° NNE 06:41:24 33° E 06:45:19 10° SSE
PSLV R/B 3.3 06:41:01 34° W 06:42:20 71° SSW 06:45:42 10° ESE
Nadezhda 4 Rocket 3.9 06:37:20 10° N 06:43:41 79° W 06:49:55 10° S
Gbstr 26 Del rocket 3.8 06:40:12 18° WSW 06:44:15 68° NNW 06:50:54 10° NE
APEX 2.8 06:42:15 10° SW 06:45:50 55° WNW 06:48:50 10° NNE
Cosmos 2034 Rocket 4.1 06:44:09 10° SSW 06:50:08 49° WNW 06:56:13 10° N
Cosmos 1666 Rocket 3.9 06:46:28 10° NNW 06:50:43 44° W 06:54:57 10° SSW
CSL-04 Rocket 3.5 06:47:10 10° N 06:52:26 68° WNW 06:57:39 10° SSW
COSMOS 2406 4.3 06:50:53 10° NNW 06:56:23 44° ENE 07:01:52 10° SE
Iridium 4 Rocket 4.2 06:53:25 10° N 06:57:45 50° E 07:02:25 10° SSE
Coronas F rocket 2.6 07:01:04 19° WSW 07:01:04 19° WSW 07:02:28 10° SW
Cosmos 1908 3.6 06:57:31 10° SSW 07:01:05 38° WNW 07:04:41 10° N
Cosmos 1933 Rocket 3.6 06:57:50 10° N 07:02:18 90° ENE 07:06:43 10° S
SeaSat 1 4.0 07:01:57 10° N 07:04:50 16° NW 07:06:20 14° WNW
Cosmos 1092 Rocket 4.0 07:00:16 10° NNW 07:06:30 73° W 07:12:39 10° S
Cosmos 1300 2.9 07:06:28 10° S 07:10:17 76° E 07:14:07 10° N
Cosmos 192 4.4 07:06:36 10° NNW 07:11:28 58° WSW 07:16:19 10° S
Ariane Rocket 3.6 07:10:20 10° N 07:14:54 34° WNW 07:19:28 10° SW
Cosmos 1626 3.8 07:15:29 11° WNW 07:17:14 15° W 07:19:21 10° WSW
SPOT 3 Rocket 3.8 07:12:21 10° NNE 07:17:36 76° ESE 07:22:48 10° S
Cosmos 990 Rocket 3.9 07:16:47 10° SSW 07:21:57 76° WNW 07:27:12 10° NNE
Meteor 1-29 3.5 07:19:56 10° SSE 07:23:23 63° ENE 07:26:52 10° N
Cosmos 1470 Rocket 3.8 07:19:31 10° NNW 07:23:41 46° W 07:27:51 10° SSW
COSMO-SKYMED 1 4.5 07:26:14 10° WSW 07:27:11 11° W 07:28:07 10° WNW
CZ-4 R/B 4.4 07:26:05 10° NNE 07:30:14 85° WNW 07:34:21 10° SSW
Cosmos 1898 Rocket 4.1 07:26:53 10° SW 07:31:43 36° WNW 07:36:38 10° N
DELTA 2 R/B (1) 3.8 07:31:16 10° W 07:36:47 68° S 07:42:19 10° ESE
